Regional Weather Roundup
Issued by NWS Cleveland, OH

Home | Current Version | Previous Version | Text Only | Print | Product List | Glossary Off
Versions: 1 2 3 4 5 6 7 8 9 10 11 12 13 14 15 16 17 18 19 20 21 22 23 24 25 26 27 28 29 30 31 32 33 34 35 36 37 38 39 40 41 42 43 44 45 46 47 48 49 50

000
ASUS41 KCLE 242210
RWRCLE
OHIO REGIONAL WEATHER ROUNDUP
NATIONAL WEATHER SERVICE WILMINGTON, OH
500 PM EST SAT JAN 24 2015

NOTE: "FAIR" INDICATES FEW OR NO CLOUDS BELOW 12,000 FEET WITH NO
SIGNIFICANT WEATHER AND/OR OBSTRUCTIONS TO VISIBILITY.

OHZ001>008-015>018-024>027-034-035-043-044-242300-
   NORTHWEST OHIO

CITY           SKY/WX    TMP DP  RH WIND       PRES   REMARKS
DEFIANCE       CLOUDY    36  30  79 W7        29.65R
FINDLAY        CLOUDY    33  29  85 W14       29.64R FOG     WCI  23
TOLEDO EXPRESS CLOUDY    33  29  85 W12       29.62R FOG     WCI  24
TOLEDO EXEC    CLOUDY    34  28  79 W10       29.63R HAZE    WCI  26
LIMA           CLOUDY    35  29  78 W13       29.66R HAZE    WCI  26
$$

OHZ009>014-019>023-028>033-038-089-242300-
   NORTHEAST OHIO

CITY           SKY/WX    TMP DP  RH WIND       PRES   REMARKS
CLE-HOPKINS    LGT SNOW  31  27  85 W12       29.62R WCI  22
CLE-LAKEFRONT  CLOUDY    32  27  81 SW13      29.60R HAZE    WCI  22
CUY CO. ARPT   CLOUDY    32  30  93 W15       29.59R FOG     WCI  22
LORAIN-ELYRIA  CLOUDY    31  27  85 W13       29.62R FOG     WCI  21
ASHTABULA      CLOUDY    29  25  85 W8        29.57R FOG     WCI  21
AKRON-CANTON   CLOUDY    32  25  75 W10       29.59R HAZE    WCI  24
WOOSTER        FRZ RAIN  31  28  89 W13       29.61R FOG     WCI  21
MANSFIELD      CLOUDY    30  28  92 W14G21    29.61R FOG     WCI  19
YOUNGSTOWN     CLOUDY    29  24  82 SW10      29.56R HAZE    WCI  20
$$

OHZ042-051>053-060>062-070>072-077>081-242300-
  SOUTHWEST OHIO

CITY           SKY/WX    TMP DP  RH WIND       PRES   REMARKS
CINC-COVINGTON CLOUDY    39  27  62 W10       29.72S
CINC-LUNKEN    CLOUDY    39  28  64 W12       29.74R
HAMILTON       MOCLDY    38  28  67 W9        29.73R
DAYTON         MOCLDY    35  29  78 W15       29.68S HAZE    WCI  25
WRIGHT-PAT AFB MOCLDY    35  28  76 SW13      29.68S WCI  26
DAYTON GENERAL CLOUDY    36  28  73 SW9       29.68S
WILMINGTON     CLOUDY    35  27  72 W15       29.69R WCI  25
$$

OHZ036-037-039>041-045>050-054>059-063>069-073>076-082>088-242300-
  CENTRAL AND SOUTHEAST OHIO

CITY           SKY/WX    TMP DP  RH WIND       PRES   REMARKS
COLUMBUS       DRIZZLE   34  29  82 W17       29.66R HAZE    WCI  23
OSU AIRPORT    CLOUDY    35  28  75 W15G22    29.66R WCI  25
BOLTON FIELD   NOT AVBL
RICKENBACK AFB CLOUDY    36  29  76 W18       29.67R HAZE
NEWARK         CLOUDY    36  28  73 W13       29.64R
MARION         CLOUDY    32  28  85 W8        29.65R FOG     WCI  25
LANCASTER      CLOUDY    36  29  75 SW12      29.66R
ZANESVILLE     CLOUDY    32  26  78 SW9       29.64R HAZE    WCI  24
NEW PHILLY     CLOUDY    33  26  75 W5        29.63R WCI  29
$$



USA.gov is the U.S. government's official web portal to all federal, state and local government web resources and services.